Year,Month,Day,Hour,Minute,Value (Times are PST for temperature in C)
2009,08,01,00,00,19.70
2009,08,01,00,01,19.80
2009,08,01,00,02,19.70
2009,08,01,00,03,19.70
2009,08,01,00,04,19.70
2009,08,01,00,05,19.70
2009,08,01,00,06,19.70
2009,08,01,00,07,19.70
2009,08,01,00,08,19.70
2009,08,01,00,09,19.60
2009,08,01,00,10,19.60
2009,08,01,00,11,19.60
2009,08,01,00,12,19.60
2009,08,01,00,13,19.60
2009,08,01,00,14,19.60
2009,08,01,00,15,19.50
2009,08,01,00,16,19.50
2009,08,01,00,17,19.50
2009,08,01,00,18,19.50
2009,08,01,00,19,19.50
2009,08,01,00,20,19.60
2009,08,01,00,21,19.60
2009,08,01,00,22,19.60
2009,08,01,00,23,19.60
2009,08,01,00,24,19.60
2009,08,01,00,25,19.60
2009,08,01,00,26,19.60
2009,08,01,00,27,19.50
2009,08,01,00,28,19.60
2009,08,01,00,29,19.60
2009,08,01,00,30,19.60
2009,08,01,00,31,19.60
2009,08,01,00,32,19.60
2009,08,01,00,33,19.60
2009,08,01,00,34,19.60
2009,08,01,00,35,19.60
2009,08,01,00,36,19.60
2009,08,01,00,37,19.60
2009,08,01,00,38,19.60
2009,08,01,00,39,19.60
2009,08,01,00,40,19.60
2009,08,01,00,41,19.60
2009,08,01,00,42,19.60
2009,08,01,00,43,19.60
2009,08,01,00,44,19.60
2009,08,01,00,45,19.60
2009,08,01,00,46,19.60
2009,08,01,00,47,19.60
2009,08,01,00,48,19.60
2009,08,01,00,49,19.60
2009,08,01,00,50,19.60
2009,08,01,00,51,19.60
2009,08,01,00,52,19.60
2009,08,01,00,53,19.60
2009,08,01,00,54,19.60
2009,08,01,00,55,19.70
2009,08,01,00,56,19.80
2009,08,01,00,57,19.80
2009,08,01,00,58,19.80
2009,08,01,00,59,19.80
2009,08,01,01,00,19.80
2009,08,01,01,01,19.80
2009,08,01,01,02,19.80
2009,08,01,01,03,19.80
2009,08,01,01,04,19.80
2009,08,01,01,05,19.80
2009,08,01,01,06,19.70
2009,08,01,01,07,19.70
2009,08,01,01,08,19.70
2009,08,01,01,09,19.70
2009,08,01,01,10,19.70
2009,08,01,01,11,19.60
2009,08,01,01,12,19.60
2009,08,01,01,13,19.60
2009,08,01,01,14,19.60
2009,08,01,01,15,19.60
2009,08,01,01,16,19.60
2009,08,01,01,17,19.60
2009,08,01,01,18,19.60
2009,08,01,01,19,19.60
2009,08,01,01,20,19.60
2009,08,01,01,21,19.50
2009,08,01,01,22,19.50
2009,08,01,01,23,19.50
2009,08,01,01,24,19.50
2009,08,01,01,25,19.40
2009,08,01,01,26,19.40
2009,08,01,01,27,19.40
2009,08,01,01,28,19.40
2009,08,01,01,29,19.40
2009,08,01,01,30,19.40
2009,08,01,01,31,19.30
2009,08,01,01,32,19.30
2009,08,01,01,33,19.30
2009,08,01,01,34,19.30
2009,08,01,01,35,19.30
2009,08,01,01,36,19.20
2009,08,01,01,37,19.20
2009,08,01,01,38,19.20
2009,08,01,01,39,19.20
2009,08,01,01,40,19.20
2009,08,01,01,41,19.20
2009,08,01,01,42,19.10
2009,08,01,01,43,19.10
2009,08,01,01,44,19.10
2009,08,01,01,45,19.10
2009,08,01,01,46,19.10
2009,08,01,01,47,19.10
2009,08,01,01,48,19.10
2009,08,01,01,49,19.00
2009,08,01,01,50,19.00
2009,08,01,01,51,19.00
2009,08,01,01,52,19.00
2009,08,01,01,53,19.00
2009,08,01,01,54,19.00
2009,08,01,01,55,19.00
2009,08,01,01,56,19.00
2009,08,01,01,57,19.00
2009,08,01,01,58,19.00
2009,08,01,01,59,19.00
2009,08,01,02,00,18.90
2009,08,01,02,01,18.90
2009,08,01,02,02,18.90
2009,08,01,02,03,18.90
2009,08,01,02,04,18.90
2009,08,01,02,05,18.90
2009,08,01,02,06,18.90
2009,08,01,02,07,18.90
2009,08,01,02,08,18.90
2009,08,01,02,09,18.90
2009,08,01,02,10,18.90
2009,08,01,02,11,18.90
2009,08,01,02,12,18.80
2009,08,01,02,13,18.80
2009,08,01,02,14,18.80
2009,08,01,02,15,18.80
2009,08,01,02,16,18.80
2009,08,01,02,17,18.80
2009,08,01,02,18,18.80
2009,08,01,02,19,18.70
2009,08,01,02,20,18.70
2009,08,01,02,21,18.70
2009,08,01,02,22,18.70
2009,08,01,02,23,18.70
2009,08,01,02,24,18.70
2009,08,01,02,25,18.60
2009,08,01,02,26,18.60
2009,08,01,02,27,18.60
2009,08,01,02,28,18.60
2009,08,01,02,29,18.60
2009,08,01,02,30,18.60
2009,08,01,02,31,18.60
2009,08,01,02,32,18.50
2009,08,01,02,33,18.50
2009,08,01,02,34,18.50
2009,08,01,02,35,18.50
2009,08,01,02,36,18.50
2009,08,01,02,37,18.50
2009,08,01,02,38,18.50
2009,08,01,02,39,18.50
2009,08,01,02,40,18.40
2009,08,01,02,41,18.40
2009,08,01,02,42,18.40
2009,08,01,02,43,18.40
2009,08,01,02,44,18.40
2009,08,01,02,45,18.30
2009,08,01,02,46,18.30
2009,08,01,02,47,18.30
2009,08,01,02,48,18.30
2009,08,01,02,49,18.20
2009,08,01,02,50,18.20
2009,08,01,02,51,18.20
2009,08,01,02,52,18.20
2009,08,01,02,53,18.20
2009,08,01,02,54,18.20
2009,08,01,02,55,18.20
2009,08,01,02,56,18.20
2009,08,01,02,57,18.10
2009,08,01,02,58,18.10
2009,08,01,02,59,18.10
2009,08,01,03,00,18.10
2009,08,01,03,01,18.10
2009,08,01,03,02,18.10
2009,08,01,03,03,18.10
2009,08,01,03,04,18.10
2009,08,01,03,05,18.10
2009,08,01,03,06,18.10
2009,08,01,03,07,18.10
2009,08,01,03,08,18.10
2009,08,01,03,09,18.10
2009,08,01,03,10,18.10
2009,08,01,03,11,18.10
2009,08,01,03,12,18.10
2009,08,01,03,13,18.00
2009,08,01,03,14,18.00
2009,08,01,03,15,18.00
2009,08,01,03,16,18.00
2009,08,01,03,17,18.00
2009,08,01,03,18,18.00
2009,08,01,03,19,18.00
2009,08,01,03,20,18.00
2009,08,01,03,21,18.00
2009,08,01,03,22,18.00
2009,08,01,03,23,17.90
2009,08,01,03,24,17.90
2009,08,01,03,25,17.90
2009,08,01,03,26,17.90
2009,08,01,03,27,17.90
2009,08,01,03,28,17.90
2009,08,01,03,29,17.90
2009,08,01,03,30,17.90
2009,08,01,03,31,17.90
2009,08,01,03,32,17.90
2009,08,01,03,33,17.90
2009,08,01,03,34,17.90
2009,08,01,03,35,17.80
2009,08,01,03,36,17.80
2009,08,01,03,37,17.80
2009,08,01,03,38,17.80
2009,08,01,03,39,17.80
2009,08,01,03,40,17.80
2009,08,01,03,41,17.80
2009,08,01,03,42,17.80
2009,08,01,03,43,17.80
2009,08,01,03,44,17.80
2009,08,01,03,45,17.80
2009,08,01,03,46,17.80
2009,08,01,03,47,17.90
2009,08,01,03,48,17.90
2009,08,01,03,49,17.90
2009,08,01,03,50,17.90
2009,08,01,03,51,17.80
2009,08,01,03,52,17.80
2009,08,01,03,53,17.80
2009,08,01,03,54,17.80
2009,08,01,03,55,17.80
2009,08,01,03,56,17.80
2009,08,01,03,57,17.80
2009,08,01,03,58,17.80
2009,08,01,03,59,17.80
2009,08,01,04,00,17.70
2009,08,01,04,01,17.70
2009,08,01,04,02,17.70
2009,08,01,04,03,17.70
2009,08,01,04,04,17.70
2009,08,01,04,05,17.70
2009,08,01,04,06,17.70
2009,08,01,04,07,17.70
2009,08,01,04,08,17.70
2009,08,01,04,09,17.70
2009,08,01,04,10,17.70
2009,08,01,04,11,17.70
2009,08,01,04,12,17.70
2009,08,01,04,13,17.60
2009,08,01,04,14,17.60
2009,08,01,04,15,17.60
2009,08,01,04,16,17.60
2009,08,01,04,17,17.60
2009,08,01,04,18,17.60
2009,08,01,04,19,17.60
2009,08,01,04,20,17.60
2009,08,01,04,21,17.60
2009,08,01,04,22,17.60
2009,08,01,04,23,17.60
2009,08,01,04,24,17.60
2009,08,01,04,25,17.60
2009,08,01,04,26,17.60
2009,08,01,04,27,17.60
2009,08,01,04,28,17.60
2009,08,01,04,29,17.60
2009,08,01,04,30,17.60
2009,08,01,04,31,17.60
2009,08,01,04,32,17.60
2009,08,01,04,33,17.60
2009,08,01,04,34,17.60
2009,08,01,04,35,17.60
2009,08,01,04,36,17.60
2009,08,01,04,37,17.60
2009,08,01,04,38,17.60
2009,08,01,04,39,17.60
2009,08,01,04,40,17.60
2009,08,01,04,41,17.60
2009,08,01,04,42,17.60
2009,08,01,04,43,17.50
2009,08,01,04,44,17.50
2009,08,01,04,45,17.50
2009,08,01,04,46,17.40
2009,08,01,04,47,17.40
2009,08,01,04,48,17.40
2009,08,01,04,49,17.40
2009,08,01,04,50,17.40
2009,08,01,04,51,17.40
2009,08,01,04,52,17.40
2009,08,01,04,53,17.40
2009,08,01,04,54,17.40
2009,08,01,04,55,17.40
2009,08,01,04,56,17.40
2009,08,01,04,57,17.40
2009,08,01,04,58,17.30
2009,08,01,04,59,17.30
2009,08,01,05,00,17.30
2009,08,01,05,01,17.30
2009,08,01,05,02,17.30
2009,08,01,05,03,17.30
2009,08,01,05,04,17.30
2009,08,01,05,05,17.30
2009,08,01,05,06,17.30
2009,08,01,05,07,17.30
2009,08,01,05,08,17.30
2009,08,01,05,09,17.30
2009,08,01,05,10,17.30
2009,08,01,05,11,17.30
2009,08,01,05,12,17.30
2009,08,01,05,13,17.30
2009,08,01,05,14,17.30
2009,08,01,05,15,17.30
2009,08,01,05,16,17.30
2009,08,01,05,17,17.30
2009,08,01,05,18,17.30
2009,08,01,05,19,17.30
2009,08,01,05,20,17.30
2009,08,01,05,21,17.30
2009,08,01,05,22,17.40
2009,08,01,05,23,17.40
2009,08,01,05,24,17.40
2009,08,01,05,25,17.40
2009,08,01,05,26,17.40
2009,08,01,05,27,17.40
2009,08,01,05,28,17.40
2009,08,01,05,29,17.50
2009,08,01,05,30,17.50
2009,08,01,05,31,17.50
2009,08,01,05,32,17.50
2009,08,01,05,33,17.40
2009,08,01,05,34,17.40
2009,08,01,05,35,17.40
2009,08,01,05,36,17.40
2009,08,01,05,37,17.40
2009,08,01,05,38,17.40
2009,08,01,05,39,17.40
2009,08,01,05,40,17.40
2009,08,01,05,41,17.40
2009,08,01,05,42,17.40
2009,08,01,05,43,17.40
2009,08,01,05,44,17.40
2009,08,01,05,45,17.40
2009,08,01,05,46,17.30
2009,08,01,05,47,17.30
2009,08,01,05,48,17.30
2009,08,01,05,49,17.30
2009,08,01,05,50,17.30
2009,08,01,05,51,17.30
2009,08,01,05,52,17.30
2009,08,01,05,53,17.30
2009,08,01,05,54,17.30
2009,08,01,05,55,17.30
2009,08,01,05,56,17.30
2009,08,01,05,57,17.30
2009,08,01,05,58,17.30
2009,08,01,05,59,17.30
2009,08,01,06,00,17.30
2009,08,01,06,01,17.30
2009,08,01,06,02,17.30
2009,08,01,06,03,17.30
2009,08,01,06,04,17.30
2009,08,01,06,05,17.30
2009,08,01,06,06,17.30
2009,08,01,06,07,17.30
2009,08,01,06,08,17.30
2009,08,01,06,09,17.30
2009,08,01,06,10,17.30
2009,08,01,06,11,17.30
2009,08,01,06,12,17.30
2009,08,01,06,13,17.30
2009,08,01,06,14,17.30
2009,08,01,06,15,17.30
2009,08,01,06,16,17.30
2009,08,01,06,17,17.30
2009,08,01,06,18,17.30
2009,08,01,06,19,17.30
2009,08,01,06,20,17.30
2009,08,01,06,21,17.30
2009,08,01,06,22,17.30
2009,08,01,06,23,17.30
2009,08,01,06,24,17.20
2009,08,01,06,25,17.20
2009,08,01,06,26,17.20
2009,08,01,06,27,17.20
2009,08,01,06,28,17.20
2009,08,01,06,29,17.20
2009,08,01,06,30,17.20
2009,08,01,06,31,17.20
2009,08,01,06,32,17.20
2009,08,01,06,33,17.20
2009,08,01,06,34,17.20
2009,08,01,06,35,17.20
2009,08,01,06,36,17.30
2009,08,01,06,37,17.30
2009,08,01,06,38,17.30
2009,08,01,06,39,17.30
2009,08,01,06,40,17.30
2009,08,01,06,41,17.30
2009,08,01,06,42,17.40
2009,08,01,06,43,17.40
2009,08,01,06,44,17.40
2009,08,01,06,45,17.50
2009,08,01,06,46,17.50
2009,08,01,06,47,17.60
2009,08,01,06,48,17.60
2009,08,01,06,49,17.60
2009,08,01,06,50,17.70
2009,08,01,06,51,17.70
2009,08,01,06,52,17.80
2009,08,01,06,53,17.90
2009,08,01,06,54,17.90
2009,08,01,06,55,18.00
2009,08,01,06,56,18.10
2009,08,01,06,57,18.20
2009,08,01,06,58,18.20
2009,08,01,06,59,18.30
2009,08,01,07,00,18.40
2009,08,01,07,01,18.50
2009,08,01,07,02,18.50
2009,08,01,07,03,18.60
2009,08,01,07,04,18.70
2009,08,01,07,05,18.70
2009,08,01,07,06,18.80
2009,08,01,07,07,18.80
2009,08,01,07,08,18.90
2009,08,01,07,09,19.00
2009,08,01,07,10,19.00
2009,08,01,07,11,19.10
2009,08,01,07,12,19.20
2009,08,01,07,13,19.30
2009,08,01,07,14,19.30
2009,08,01,07,15,19.40
2009,08,01,07,16,19.50
2009,08,01,07,17,19.60
2009,08,01,07,18,19.70
2009,08,01,07,19,19.80
2009,08,01,07,20,19.90
2009,08,01,07,21,20.00
2009,08,01,07,22,20.10
2009,08,01,07,23,20.20
2009,08,01,07,24,20.30
2009,08,01,07,25,20.30
2009,08,01,07,26,20.40
2009,08,01,07,27,20.40
2009,08,01,07,28,20.50
2009,08,01,07,29,20.50
2009,08,01,07,30,20.60
2009,08,01,07,31,20.60
2009,08,01,07,32,20.60
2009,08,01,07,33,20.70
2009,08,01,07,34,20.70
2009,08,01,07,35,20.70
2009,08,01,07,36,20.70
2009,08,01,07,37,20.80
2009,08,01,07,38,20.80
2009,08,01,07,39,20.90
2009,08,01,07,40,20.90
2009,08,01,07,41,21.00
2009,08,01,07,42,21.10
2009,08,01,07,43,21.10
2009,08,01,07,44,21.20
2009,08,01,07,45,21.30
2009,08,01,07,46,21.40
2009,08,01,07,47,21.60
2009,08,01,07,48,21.70
2009,08,01,07,49,21.80
2009,08,01,07,50,22.00
2009,08,01,07,51,22.10
2009,08,01,07,52,22.20
2009,08,01,07,53,22.30
2009,08,01,07,54,22.30
2009,08,01,07,55,22.30
2009,08,01,07,56,22.30
2009,08,01,07,57,22.30
2009,08,01,07,58,22.30
2009,08,01,07,59,22.30
2009,08,01,08,00,22.30
2009,08,01,08,01,22.30
2009,08,01,08,02,22.30
2009,08,01,08,03,22.30
2009,08,01,08,04,22.30
2009,08,01,08,05,22.40
2009,08,01,08,06,22.50
2009,08,01,08,07,22.50
2009,08,01,08,08,22.60
2009,08,01,08,09,22.70
2009,08,01,08,10,22.70
2009,08,01,08,11,22.70
2009,08,01,08,12,22.70
2009,08,01,08,13,22.70
2009,08,01,08,14,22.60
2009,08,01,08,15,22.60
2009,08,01,08,16,22.60
2009,08,01,08,17,22.60
2009,08,01,08,18,22.60
2009,08,01,08,19,22.60
2009,08,01,08,20,22.60
2009,08,01,08,21,22.70
2009,08,01,08,22,22.70
2009,08,01,08,23,22.80
2009,08,01,08,24,22.90
2009,08,01,08,25,23.00
2009,08,01,08,26,23.10
2009,08,01,08,27,23.20
2009,08,01,08,28,23.30
2009,08,01,08,29,23.40
2009,08,01,08,30,23.50
2009,08,01,08,31,23.60
2009,08,01,08,32,23.60
2009,08,01,08,33,23.60
2009,08,01,08,34,23.60
2009,08,01,08,35,23.60
2009,08,01,08,36,23.60
2009,08,01,08,37,23.70
2009,08,01,08,38,23.70
2009,08,01,08,39,23.80
2009,08,01,08,40,23.90
2009,08,01,08,41,23.90
2009,08,01,08,42,23.90
2009,08,01,08,43,23.90
2009,08,01,08,44,23.90
2009,08,01,08,45,24.00
2009,08,01,08,46,24.00
2009,08,01,08,47,24.10
2009,08,01,08,48,24.20
2009,08,01,08,49,24.20
2009,08,01,08,50,24.20
2009,08,01,08,51,24.20
2009,08,01,08,52,24.20
2009,08,01,08,53,24.30
2009,08,01,08,54,24.30
2009,08,01,08,55,24.20
2009,08,01,08,56,24.10
2009,08,01,08,57,24.00
2009,08,01,08,58,23.90
2009,08,01,08,59,23.80
2009,08,01,09,00,23.80
2009,08,01,09,01,23.70
2009,08,01,09,02,23.60
2009,08,01,09,03,23.50
2009,08,01,09,04,23.50
2009,08,01,09,05,23.50
2009,08,01,09,06,23.60
2009,08,01,09,07,23.60
2009,08,01,09,08,23.70
2009,08,01,09,09,23.60
2009,08,01,09,10,23.60
2009,08,01,09,11,23.50
2009,08,01,09,12,23.40
2009,08,01,09,13,23.40
2009,08,01,09,14,23.30
2009,08,01,09,15,23.30
2009,08,01,09,16,23.20
2009,08,01,09,17,23.10
2009,08,01,09,18,23.10
2009,08,01,09,19,23.00
2009,08,01,09,20,23.00
2009,08,01,09,21,23.00
2009,08,01,09,22,23.00
2009,08,01,09,23,23.00
2009,08,01,09,24,23.00
2009,08,01,09,25,23.00
2009,08,01,09,26,23.00
2009,08,01,09,27,23.00
2009,08,01,09,28,22.90
2009,08,01,09,29,23.00
2009,08,01,09,30,23.00
2009,08,01,09,31,23.10
2009,08,01,09,32,23.10
2009,08,01,09,33,23.20
2009,08,01,09,34,23.20
2009,08,01,09,35,23.30
2009,08,01,09,36,23.40
2009,08,01,09,37,23.50
2009,08,01,09,38,23.50
2009,08,01,09,39,23.50
2009,08,01,09,40,23.60
2009,08,01,09,41,23.60
2009,08,01,09,42,23.60
2009,08,01,09,43,23.60
2009,08,01,09,44,23.70
2009,08,01,09,45,23.70
2009,08,01,09,46,23.70
2009,08,01,09,47,23.80
2009,08,01,09,48,23.90
2009,08,01,09,49,24.00
2009,08,01,09,50,24.10
2009,08,01,09,51,24.10
2009,08,01,09,52,24.20
2009,08,01,09,53,24.20
2009,08,01,09,54,24.20
2009,08,01,09,55,24.30
2009,08,01,09,56,24.30
2009,08,01,09,57,24.40
2009,08,01,09,58,24.40
2009,08,01,09,59,24.50
2009,08,01,10,00,24.40
2009,08,01,10,01,24.20
2009,08,01,10,02,24.10
2009,08,01,10,03,24.00
2009,08,01,10,04,23.90
2009,08,01,10,05,23.90
2009,08,01,10,06,23.70
2009,08,01,10,07,23.40
2009,08,01,10,08,23.20
2009,08,01,10,09,23.10
2009,08,01,10,10,22.90
2009,08,01,10,11,22.90
2009,08,01,10,12,22.80
2009,08,01,10,13,22.80
2009,08,01,10,14,22.80
2009,08,01,10,15,22.70
2009,08,01,10,16,22.70
2009,08,01,10,17,22.70
2009,08,01,10,18,22.70
2009,08,01,10,19,22.70
2009,08,01,10,20,22.80
2009,08,01,10,21,22.80
2009,08,01,10,22,22.80
2009,08,01,10,23,22.80
2009,08,01,10,24,22.80
2009,08,01,10,25,22.80
2009,08,01,10,26,22.80
2009,08,01,10,27,22.70
2009,08,01,10,28,22.60
2009,08,01,10,29,22.60
2009,08,01,10,30,22.50
2009,08,01,10,31,22.50
2009,08,01,10,32,22.40
2009,08,01,10,33,22.40
2009,08,01,10,34,22.30
2009,08,01,10,35,22.20
2009,08,01,10,36,22.20
2009,08,01,10,37,22.20
2009,08,01,10,38,22.20
2009,08,01,10,39,22.20
2009,08,01,10,40,22.20
2009,08,01,10,41,22.20
2009,08,01,10,42,22.30
2009,08,01,10,43,22.40
2009,08,01,10,44,22.40
2009,08,01,10,45,22.50
2009,08,01,10,46,22.60
2009,08,01,10,47,22.60
2009,08,01,10,48,22.60
2009,08,01,10,49,22.60
2009,08,01,10,50,22.60
2009,08,01,10,51,22.60
2009,08,01,10,52,22.60
2009,08,01,10,53,22.60
2009,08,01,10,54,22.70
2009,08,01,10,55,22.80
2009,08,01,10,56,22.90
2009,08,01,10,57,23.00
2009,08,01,10,58,23.10
2009,08,01,10,59,23.10
2009,08,01,11,00,23.20
2009,08,01,11,01,23.30
2009,08,01,11,02,23.40
2009,08,01,11,03,23.60
2009,08,01,11,04,23.60
2009,08,01,11,05,23.50
2009,08,01,11,06,23.40
2009,08,01,11,07,23.30
2009,08,01,11,08,23.20
2009,08,01,11,09,23.10
2009,08,01,11,10,23.00
2009,08,01,11,11,22.90
2009,08,01,11,12,22.80
2009,08,01,11,13,22.80
2009,08,01,11,14,22.80
2009,08,01,11,15,22.70
2009,08,01,11,16,22.80
2009,08,01,11,17,22.80
2009,08,01,11,18,22.80
2009,08,01,11,19,22.70
2009,08,01,11,20,22.60
2009,08,01,11,21,22.60
2009,08,01,11,22,22.60
2009,08,01,11,23,22.50
2009,08,01,11,24,22.50
2009,08,01,11,25,22.50
2009,08,01,11,26,22.60
2009,08,01,11,27,22.60
2009,08,01,11,28,22.70
2009,08,01,11,29,22.70
2009,08,01,11,30,22.70
2009,08,01,11,31,22.70
2009,08,01,11,32,22.70
2009,08,01,11,33,22.60
2009,08,01,11,34,22.60
2009,08,01,11,35,22.70
2009,08,01,11,36,22.80
2009,08,01,11,37,22.90
2009,08,01,11,38,23.00
2009,08,01,11,39,23.10
2009,08,01,11,40,23.20
2009,08,01,11,41,23.20
2009,08,01,11,42,23.20
2009,08,01,11,43,23.20
2009,08,01,11,44,23.20
2009,08,01,11,45,23.20
2009,08,01,11,46,23.10
2009,08,01,11,47,23.00
2009,08,01,11,48,23.00
2009,08,01,11,49,23.00
2009,08,01,11,50,22.90
2009,08,01,11,51,22.90
2009,08,01,11,52,22.90
2009,08,01,11,53,22.90
2009,08,01,11,54,22.90
2009,08,01,11,55,22.90
2009,08,01,11,56,23.00
2009,08,01,11,57,23.10
2009,08,01,11,58,23.10
2009,08,01,11,59,23.10
2009,08,01,12,00,23.20
2009,08,01,12,01,23.30
2009,08,01,12,02,23.30
2009,08,01,12,03,23.40
2009,08,01,12,04,23.40
2009,08,01,12,05,23.40
2009,08,01,12,06,23.30
2009,08,01,12,07,23.30
2009,08,01,12,08,23.30
2009,08,01,12,09,23.30
2009,08,01,12,10,23.30
2009,08,01,12,11,23.40
2009,08,01,12,12,23.30
2009,08,01,12,13,23.20
2009,08,01,12,14,23.10
2009,08,01,12,15,22.90
2009,08,01,12,16,22.80
2009,08,01,12,17,22.70
2009,08,01,12,18,22.70
2009,08,01,12,19,22.60
2009,08,01,12,20,22.70
2009,08,01,12,21,22.70
2009,08,01,12,22,22.80
2009,08,01,12,23,22.80
2009,08,01,12,24,22.80
2009,08,01,12,25,22.70
2009,08,01,12,26,22.60
2009,08,01,12,27,22.60
2009,08,01,12,28,22.60
2009,08,01,12,29,22.50
2009,08,01,12,30,22.50
2009,08,01,12,31,22.60
2009,08,01,12,32,22.70
2009,08,01,12,33,22.80
2009,08,01,12,34,22.90
2009,08,01,12,35,23.00
2009,08,01,12,36,23.10
2009,08,01,12,37,23.20
2009,08,01,12,38,23.20
2009,08,01,12,39,23.20
2009,08,01,12,40,23.30
2009,08,01,12,41,23.30
2009,08,01,12,42,23.40
2009,08,01,12,43,23.60
2009,08,01,12,44,23.70
2009,08,01,12,45,23.80
2009,08,01,12,46,23.80
2009,08,01,12,47,23.80
2009,08,01,12,48,23.70
2009,08,01,12,49,23.70
2009,08,01,12,50,23.80
2009,08,01,12,51,23.80
2009,08,01,12,52,23.80
2009,08,01,12,53,23.70
2009,08,01,12,54,23.70
2009,08,01,12,55,23.70
2009,08,01,12,56,23.60
2009,08,01,12,57,23.60
2009,08,01,12,58,23.50
2009,08,01,12,59,23.60
2009,08,01,13,00,23.60
2009,08,01,13,01,23.70
2009,08,01,13,02,23.70
2009,08,01,13,03,23.80
2009,08,01,13,04,23.80
2009,08,01,13,05,23.90
2009,08,01,13,06,24.00
2009,08,01,13,07,24.10
2009,08,01,13,08,24.10
2009,08,01,13,09,24.10
2009,08,01,13,10,24.10
2009,08,01,13,11,24.10
2009,08,01,13,12,24.20
2009,08,01,13,13,24.20
2009,08,01,13,14,24.20
2009,08,01,13,15,24.30
2009,08,01,13,16,24.30
2009,08,01,13,17,24.30
2009,08,01,13,18,24.30
2009,08,01,13,19,24.30
2009,08,01,13,20,24.40
2009,08,01,13,21,24.50
2009,08,01,13,22,24.50
2009,08,01,13,23,24.50
2009,08,01,13,24,24.50
2009,08,01,13,25,24.50
2009,08,01,13,26,24.40
2009,08,01,13,27,24.40
2009,08,01,13,28,24.30
2009,08,01,13,29,24.30
2009,08,01,13,30,24.20
2009,08,01,13,31,24.10
2009,08,01,13,32,24.00
2009,08,01,13,33,24.00
2009,08,01,13,34,23.90
2009,08,01,13,35,23.90
2009,08,01,13,36,23.90
2009,08,01,13,37,23.90
2009,08,01,13,38,23.90
2009,08,01,13,39,24.00
2009,08,01,13,40,24.10
2009,08,01,13,41,24.10
2009,08,01,13,42,24.10
2009,08,01,13,43,24.10
2009,08,01,13,44,24.20
2009,08,01,13,45,24.20
2009,08,01,13,46,24.30
2009,08,01,13,47,24.30
2009,08,01,13,48,24.40
2009,08,01,13,49,24.50
2009,08,01,13,50,24.60
2009,08,01,13,51,24.80
2009,08,01,13,52,24.90
2009,08,01,13,53,25.10
2009,08,01,13,54,25.30
2009,08,01,13,55,25.60
2009,08,01,13,56,25.80
2009,08,01,13,57,26.00
2009,08,01,13,58,26.00
2009,08,01,13,59,25.90
2009,08,01,14,00,25.60
2009,08,01,14,01,25.40
2009,08,01,14,02,25.20
2009,08,01,14,03,25.10
2009,08,01,14,04,25.00
2009,08,01,14,05,24.90
2009,08,01,14,06,24.80
2009,08,01,14,07,24.70
2009,08,01,14,08,24.60
2009,08,01,14,09,24.50
2009,08,01,14,10,24.50
2009,08,01,14,11,24.60
2009,08,01,14,12,24.60
2009,08,01,14,13,24.60
2009,08,01,14,14,24.70
2009,08,01,14,15,24.90
2009,08,01,14,16,25.00
2009,08,01,14,17,25.00
2009,08,01,14,18,25.10
2009,08,01,14,19,25.20
2009,08,01,14,20,25.30
2009,08,01,14,21,25.60
2009,08,01,14,22,25.80
2009,08,01,14,23,25.90
2009,08,01,14,24,25.90
2009,08,01,14,25,25.90
2009,08,01,14,26,25.90
2009,08,01,14,27,25.90
2009,08,01,14,28,25.90
2009,08,01,14,29,26.00
2009,08,01,14,30,26.10
2009,08,01,14,31,26.20
2009,08,01,14,32,26.20
2009,08,01,14,33,26.10
2009,08,01,14,34,26.00
2009,08,01,14,35,25.90
2009,08,01,14,36,25.90
2009,08,01,14,37,25.80
2009,08,01,14,38,25.90
2009,08,01,14,39,25.90
2009,08,01,14,40,25.90
2009,08,01,14,41,26.10
2009,08,01,14,42,26.20
2009,08,01,14,43,26.30
2009,08,01,14,44,26.30
2009,08,01,14,45,26.40
2009,08,01,14,46,26.50
2009,08,01,14,47,26.60
2009,08,01,14,48,26.60
2009,08,01,14,49,26.70
2009,08,01,14,50,26.70
2009,08,01,14,51,26.70
2009,08,01,14,52,26.70
2009,08,01,14,53,26.70
2009,08,01,14,54,26.70
2009,08,01,14,55,26.70
2009,08,01,14,56,26.70
2009,08,01,14,57,26.70
2009,08,01,14,58,26.70
2009,08,01,14,59,26.60
2009,08,01,15,00,26.50
2009,08,01,15,01,26.40
2009,08,01,15,02,26.40
2009,08,01,15,03,26.30
2009,08,01,15,04,26.40
2009,08,01,15,05,26.40
2009,08,01,15,06,26.40
2009,08,01,15,07,26.50
2009,08,01,15,08,26.60
2009,08,01,15,09,26.70
2009,08,01,15,10,26.80
2009,08,01,15,11,26.80
2009,08,01,15,12,26.90
2009,08,01,15,13,27.00
2009,08,01,15,14,27.20
2009,08,01,15,15,27.30
2009,08,01,15,16,27.40
2009,08,01,15,17,27.50
2009,08,01,15,18,27.50
2009,08,01,15,19,27.60
2009,08,01,15,20,27.50
2009,08,01,15,21,27.40
2009,08,01,15,22,27.40
2009,08,01,15,23,27.40
2009,08,01,15,24,27.50
2009,08,01,15,25,27.60
2009,08,01,15,26,27.70
2009,08,01,15,27,27.80
2009,08,01,15,28,27.80
2009,08,01,15,29,27.70
2009,08,01,15,30,27.70
2009,08,01,15,31,27.70
2009,08,01,15,32,27.70
2009,08,01,15,33,27.70
2009,08,01,15,34,27.80
2009,08,01,15,35,27.80
2009,08,01,15,36,27.90
2009,08,01,15,37,27.90
2009,08,01,15,38,27.90
2009,08,01,15,39,27.90
2009,08,01,15,40,27.90
2009,08,01,15,41,28.00
2009,08,01,15,42,28.10
2009,08,01,15,43,28.10
2009,08,01,15,44,28.10
2009,08,01,15,45,28.00
2009,08,01,15,46,28.10
2009,08,01,15,47,28.10
2009,08,01,15,48,28.10
2009,08,01,15,49,28.20
2009,08,01,15,50,28.20
2009,08,01,15,51,28.20
2009,08,01,15,52,28.20
2009,08,01,15,53,28.20
2009,08,01,15,54,28.30
2009,08,01,15,55,28.40
2009,08,01,15,56,28.50
2009,08,01,15,57,28.50
2009,08,01,15,58,28.60
2009,08,01,15,59,28.70
2009,08,01,16,00,28.60
2009,08,01,16,01,28.60
2009,08,01,16,02,28.50
2009,08,01,16,03,28.50
2009,08,01,16,04,28.60
2009,08,01,16,05,28.60
2009,08,01,16,06,28.70
2009,08,01,16,07,28.70
2009,08,01,16,08,28.70
2009,08,01,16,09,28.70
2009,08,01,16,10,28.70
2009,08,01,16,11,28.70
2009,08,01,16,12,28.60
2009,08,01,16,13,28.50
2009,08,01,16,14,28.40
2009,08,01,16,15,28.40
2009,08,01,16,16,28.30
2009,08,01,16,17,28.30
2009,08,01,16,18,28.30
2009,08,01,16,19,28.30
2009,08,01,16,20,28.30
2009,08,01,16,21,28.30
2009,08,01,16,22,28.20
2009,08,01,16,23,28.20
2009,08,01,16,24,28.20
2009,08,01,16,25,28.20
2009,08,01,16,26,28.20
2009,08,01,16,27,28.10
2009,08,01,16,28,28.10
2009,08,01,16,29,28.10
2009,08,01,16,30,28.20
2009,08,01,16,31,28.20
2009,08,01,16,32,28.20
2009,08,01,16,33,28.10
2009,08,01,16,34,28.10
2009,08,01,16,35,28.10
2009,08,01,16,36,28.10
2009,08,01,16,37,28.10
2009,08,01,16,38,28.10
2009,08,01,16,39,28.00
2009,08,01,16,40,27.90
2009,08,01,16,41,27.80
2009,08,01,16,42,27.70
2009,08,01,16,43,27.60
2009,08,01,16,44,27.60
2009,08,01,16,45,27.60
2009,08,01,16,46,27.50
2009,08,01,16,47,27.50
2009,08,01,16,48,27.60
2009,08,01,16,49,27.60
2009,08,01,16,50,27.60
2009,08,01,16,51,27.60
2009,08,01,16,52,27.70
2009,08,01,16,53,27.70
2009,08,01,16,54,27.80
2009,08,01,16,55,27.80
2009,08,01,16,56,27.80
2009,08,01,16,57,27.80
2009,08,01,16,58,27.90
2009,08,01,16,59,27.80
2009,08,01,17,00,27.80
2009,08,01,17,01,27.80
2009,08,01,17,02,27.90
2009,08,01,17,03,27.90
2009,08,01,17,04,28.00
2009,08,01,17,05,28.10
2009,08,01,17,06,28.20
2009,08,01,17,07,28.30
2009,08,01,17,08,28.30
2009,08,01,17,09,28.30
2009,08,01,17,10,28.30
2009,08,01,17,11,28.30
2009,08,01,17,12,28.40
2009,08,01,17,13,28.40
2009,08,01,17,14,28.50
2009,08,01,17,15,28.60
2009,08,01,17,16,28.60
2009,08,01,17,17,28.60
2009,08,01,17,18,28.50
2009,08,01,17,19,28.50